Theta_e
322 326 321 326 330 328 333 333 330 328 328 328 328 329 330 331 332 336 340 341 339 347 333 321 319 320 325 327 330 337 339 334 328 323 320 319 318 318 318 318 318 318 318 318 319 320 320 320 320
320 325 324 327 330 331 333 333 329 330 328 326 326 327 328 329 331 336 340 342 339 349 334 321 319 319 321 325 329 335 335 330 326 322 320 320 320 319 319 319 319 319 319 319 320 320 320 320 320
323 325 325 328 331 335 333 330 329 328 326 326 328 328 329 332 335 336 340 345 340 348 341 322 319 319 319 324 327 333 331 327 324 321 320 320 320 320 320 320 320 320 320 320 320 320 320 320 320
325 327 325 327 329 333 335 330 327 327 326 325 327 330 330 332 333 339 343 345 342 345 349 327 319 319 319 322 327 331 329 326 323 321 321 321 321 321 320 320 320 320 320 320 320 320 320 320 320
326 326 329 330 329 329 333 332 326 325 326 326 326 329 331 332 333 339 344 344 343 344 347 338 319 319 319 321 325 330 331 327 323 321 321 321 321 321 320 320 320 320 319 319 320 320 320 320 320
327 327 329 329 330 329 327 324 327 327 326 326 326 328 331 332 330 338 344 344 342 344 346 343 319 319 319 320 323 327 329 329 322 320 320 320 321 320 320 320 320 320 319 319 319 319 320 320 320
325 328 329 328 329 330 329 326 326 329 328 328 327 330 332 331 328 337 343 342 342 343 345 349 319 319 319 320 321 325 328 328 321 319 320 320 321 320 320 319 319 319 318 318 318 319 319 319 319
323 327 328 328 329 329 329 327 326 327 330 328 328 330 331 329 327 330 340 341 341 342 343 351 322 320 320 320 320 323 326 324 319 318 319 320 320 320 319 319 318 318 318 317 317 317 317 318 318
322 326 326 327 327 328 328 329 327 326 328 329 328 328 329 327 327 328 333 343 339 340 342 347 343 343 331 325 320 320 321 321 319 319 319 320 320 320 319 319 319 318 318 317 317 316 316 316 316
323 325 325 325 326 327 327 328 327 327 327 327 327 327 328 326 326 327 329 337 340 339 341 342 343 344 343 340 336 320 320 320 320 320 320 320 321 334 332 331 322 319 318 318 317 317 316 315 316
322 324 325 324 324 324 325 326 327 327 327 326 326 326 326 325 325 326 327 331 339 338 339 340 343 343 343 340 341 333 333 325 322 321 324 323 333 337 341 340 334 323 319 318 319 321 320 327 332
321 321 322 323 322 323 324 324 326 326 327 325 325 327 325 325 325 325 325 328 333 339 336 337 342 344 344 341 340 343 339 340 339 335 332 340 332 340 342 342 342 340 337 328 327 336 335 336 336
319 320 320 320 320 320 321 323 324 325 325 326 324 323 326 325 324 323 324 326 329 335 339 336 339 345 348 344 342 341 342 340 341 342 343 344 345 342 345 343 339 338 338 337 337 335 332 335 337
317 317 317 318 319 319 320 321 320 321 322 323 322 320 323 326 324 322 321 325 331 336 336 340 337 339 341 343 347 344 344 341 342 343 345 344 346 345 344 343 341 338 335 334 333 334 335 336 338
316 317 318 318 318 319 318 319 320 319 319 321 320 320 323 326 323 321 321 323 327 330 333 332 336 337 340 337 333 343 344 344 343 344 344 346 340 344 342 341 338 335 331 324 327 330 333 334 336
317 317 317 318 318 318 317 318 319 318 319 319 319 319 323 324 322 320 320 322 323 325 324 329 333 337 331 338 341 339 340 341 341 343 342 342 341 331 336 333 331 321 322 329 333 336 339 340 337
318 318 318 318 318 317 318 318 319 318 318 319 318 319 319 323 325 321 319 319 320 316 315 324 332 333 332 331 340 343 340 337 336 336 336 337 329 323 323 326 331 320 323 334 331 331 332 335 329
318 319 319 317 319 318 318 318 319 318 318 318 318 318 318 322 325 320 319 319 319 316 314 315 328 332 331 331 333 332 334 339 339 331 333 333 327 321 325 325 326 320 329 334 332 333 332 332 330
317 317 318 318 318 317 317 318 318 319 318 318 317 317 317 319 320 319 318 317 319 322 316 313 314 318 329 328 333 334 332 339 335 339 335 336 334 325 331 333 323 320 326 334 332 333 333 333 332
315 315 316 317 317 317 317 318 318 318 318 318 318 317 317 317 318 317 317 317 320 319 317 314 313 313 314 320 328 339 340 339 334 331 342 340 337 335 329 328 325 321 321 334 333 332 333 338 333
315 316 316 317 317 317 317 318 318 318 318 317 316 317 317 317 316 318 317 317 320 320 317 317 314 313 313 315 315 323 333 336 334 337 335 332 340 338 338 336 329 323 324 335 333 333 332 340 346
316 316 316 316 316 317 318 318 319 319 318 318 316 316 316 317 316 316 316 317 318 319 319 319 316 313 313 314 314 318 320 328 333 332 333 334 337 337 339 339 337 328 327 336 335 335 336 335 342
316 316 316 316 317 317 317 317 317 318 318 317 317 316 316 316 316 317 316 317 318 318 319 320 321 314 313 313 313 314 322 325 325 331 332 331 333 339 342 344 341 338 330 334 336 341 337 340 342
315 315 316 316 317 318 318 318 317 317 317 317 317 315 316 315 317 318 317 317 317 318 319 321 320 324 318 316 318 314 313 315 317 324 329 332 333 339 332 335 343 337 341 333 334 335 333 333 339
316 316 317 318 318 319 318 316 316 317 316 317 317 315 315 315 316 317 318 317 317 318 319 321 322 323 324 325 325 325 322 316 314 315 322 333 336 340 346 349 345 343 342 334 341 336 336 335 340
316 317 318 319 319 317 316 316 316 316 316 314 314 314 315 316 317 317 317 317 317 318 319 321 322 323 323 325 326 326 326 327 327 325 326 328 327 329 339 347 349 346 347 338 335 339 339 339 340
316 316 316 317 318 316 317 316 317 316 316 315 315 315 316 316 316 317 316 316 317 319 320 320 321 321 322 324 325 327 329 330 329 328 325 329 328 327 333 338 348 345 345 344 340 341 343 339 340
315 316 315 319 319 316 315 315 316 317 316 316 316 316 315 316 316 316 316 316 317 318 319 319 320 320 320 320 322 324 326 328 330 332 333 329 324 322 328 333 343 339 334 343 348 345 344 339 334
315 315 316 315 315 319 317 316 317 317 316 316 316 316 315 316 316 316 316 317 317 317 318 318 319 319 319 319 319 320 323 325 328 330 331 334 336 330 318 319 335 341 336 346 346 342 340 335 328
316 316 316 321 319 316 317 316 316 317 316 317 316 316 315 316 316 316 317 316 315 316 317 319 318 317 317 317 317 318 319 322 325 328 330 329 325 331 333 328 326 335 342 342 338 338 341 336 343
Wind_Speed
10 11 8 11 8 8 16 18 1 2 5 6 6 6 9 16 12 4 4 4 3 15 17 19 18 21 24 25 23 21 20 18 17 17 16 15 15 15 14 13 12 11 10 9 9 8 7 7 6
9 8 10 12 9 13 13 16 6 9 8 3 10 12 12 12 6 6 10 9 2 16 18 22 20 22 26 26 26 24 22 20 18 17 17 16 15 15 13 12 11 10 9 8 7 7 7 6 5
10 8 12 9 12 16 14 11 3 5 1 8 4 2 7 6 7 12 10 9 4 15 19 23 23 24 27 28 28 27 25 23 20 19 18 17 16 14 13 11 10 9 8 7 6 5 5 5 5
7 11 10 10 18 16 25 15 4 6 7 6 6 7 4 3 11 15 14 10 8 16 19 24 25 25 29 29 29 28 26 24 21 20 19 17 16 14 12 11 9 7 6 5 4 2 2 2 2
10 13 11 15 17 19 15 20 20 11 13 8 9 13 4 3 13 17 12 8 13 18 19 23 27 27 30 31 30 29 27 24 22 21 20 18 16 14 12 10 8 6 4 3 2 2 2 2 2
17 16 15 16 20 15 6 10 25 21 15 13 6 16 8 2 17 17 11 5 14 20 21 23 29 28 29 30 30 30 28 26 24 23 21 18 16 14 12 10 8 6 5 5 4 3 5 6 6
18 14 19 22 21 16 12 9 14 22 20 11 8 4 6 8 16 15 12 3 13 20 23 22 32 31 30 30 30 30 29 27 26 25 23 20 17 15 12 10 9 8 7 6 6 6 7 8 9
24 15 26 23 18 22 13 16 12 13 28 8 4 8 4 11 14 13 11 2 10 20 22 18 31 34 33 32 30 30 29 28 27 26 24 21 18 16 14 13 11 10 8 8 8 8 9 10 12
25 18 21 25 24 19 18 14 15 16 21 31 11 10 9 9 14 12 10 3 10 19 21 19 24 26 31 32 33 32 30 29 29 27 26 22 20 18 18 16 14 12 11 10 10 11 12 13 14
24 17 27 25 22 22 24 22 16 14 17 27 30 17 8 9 15 13 10 8 10 18 21 20 21 23 25 24 27 33 32 31 30 28 26 24 20 14 13 14 15 14 13 13 13 13 15 16 15
25 24 24 24 28 30 27 28 16 18 14 19 27 32 14 14 15 13 13 6 7 17 20 21 20 23 23 24 23 27 27 29 30 29 26 24 17 15 13 12 16 16 16 16 14 14 15 13 12
23 29 27 27 32 30 22 24 24 27 23 20 18 36 29 21 17 17 15 7 7 8 20 19 19 21 23 22 23 21 24 23 24 26 27 22 23 17 16 12 10 12 10 11 10 9 12 14 14
21 21 24 27 24 29 28 25 26 30 24 17 17 24 40 29 21 19 15 9 7 6 9 20 21 21 21 29 23 24 23 24 22 21 23 23 18 19 15 14 12 11 9 11 10 11 13 15 14
19 15 21 27 25 24 25 26 27 34 29 29 22 26 37 36 22 16 13 11 6 7 8 12 18 22 26 32 23 22 22 22 23 21 20 26 21 19 16 15 14 13 12 11 12 14 13 12 12
15 17 18 20 22 22 23 25 28 32 30 29 25 25 27 26 20 13 10 8 4 7 16 17 14 17 21 23 33 26 22 23 20 22 23 23 25 22 20 17 16 14 14 12 11 15 14 13 13
16 18 18 20 22 25 21 26 25 32 31 31 22 26 22 27 20 11 8 6 3 2 8 20 14 7 5 18 23 25 26 21 22 20 20 25 28 23 26 22 20 16 16 12 8 10 10 10 10
17 15 18 19 5 8 18 25 20 28 14 16 19 23 24 30 27 16 11 9 7 7 6 13 27 35 15 13 15 24 24 28 25 23 23 31 31 29 29 27 23 18 18 15 12 9 9 14 17
12 15 12 11 8 13 17 20 19 17 15 18 19 19 21 23 30 18 16 7 6 8 7 7 16 34 36 26 22 15 15 26 26 26 27 30 28 33 36 28 24 23 23 19 16 17 11 16 20
13 16 16 16 9 10 13 19 20 21 22 19 21 21 21 22 19 17 15 10 7 3 6 7 10 13 34 33 31 27 26 19 15 17 18 25 30 29 36 39 33 29 28 27 24 21 21 27 26
14 17 17 17 14 13 16 20 20 20 22 25 24 25 23 24 20 20 12 10 8 7 9 11 11 14 16 23 35 32 24 28 26 28 16 16 29 34 39 49 43 40 33 34 32 25 25 22 23
16 16 16 17 15 15 16 25 25 23 33 31 32 29 27 26 25 24 18 13 10 6 12 13 20 19 16 19 19 25 34 38 32 29 30 38 26 28 36 45 41 42 37 40 34 30 26 17 16
16 14 15 10 13 14 16 17 18 18 13 14 15 16 18 9 13 16 16 13 10 5 5 10 13 16 18 23 24 19 24 30 33 38 33 29 28 32 35 37 43 43 43 46 37 28 24 22 20
16 17 10 15 16 18 21 14 18 20 17 10 9 14 16 16 15 11 12 7 6 4 5 6 8 12 14 17 21 24 18 19 24 30 34 45 31 36 34 40 42 42 49 50 37 24 21 15 24
13 13 15 18 16 17 22 18 18 16 15 13 10 9 9 9 12 12 10 8 7 6 6 6 8 6 11 14 16 21 25 27 24 20 19 28 46 39 43 57 48 51 50 45 37 29 22 23 34
13 15 13 16 15 17 18 7 12 6 4 2 15 13 10 9 12 15 12 10 9 9 9 7 7 6 8 9 13 15 20 23 25 26 26 24 24 31 39 43 40 43 49 48 37 32 31 35 30
17 16 12 18 16 18 4 8 8 8 13 10 7 11 8 11 11 7 9 10 11 11 10 10 9 9 10 8 11 13 16 18 20 21 22 24 28 33 31 33 34 38 39 46 48 42 36 33 33
17 18 19 15 19 17 20 28 26 15 12 8 12 12 12 10 10 12 16 15 14 13 13 11 12 11 10 12 13 12 15 18 20 24 28 26 30 34 29 31 33 36 35 37 40 40 36 34 33
18 18 15 7 13 21 19 21 15 18 15 15 13 11 12 8 14 17 19 18 18 16 16 16 15 14 14 14 14 15 16 17 19 22 25 27 32 35 33 32 36 42 32 31 35 31 33 32 31
15 17 20 18 15 15 17 12 14 10 3 10 11 9 8 16 14 17 18 17 18 18 18 17 17 17 18 18 17 18 18 19 20 22 25 26 28 33 38 41 34 36 32 33 38 38 33 31 29
16 22 18 11 11 14 16 18 7 0 7 12 8 9 17 17 15 17 17 16 17 17 18 16 17 18 19 20 21 21 22 22 23 24 24 28 30 32 33 33 35 37 35 37 38 35 29 29 24
Wind_Direction
336 329 315 289 248 230 249 236 237 37 240 226 324 271 267 310 348 24 62 9 111 173 182 165 166 168 164 163 161 164 166 162 157 155 156 153 150 148 149 148 145 141 136 128 122 115 104 90 80
339 324 283 275 257 253 229 245 156 238 56 332 253 239 249 269 11 1 351 14 164 182 187 169 169 173 167 166 166 166 167 165 164 163 161 159 158 158 156 153 149 146 140 134 127 122 116 108 95
327 297 280 246 232 250 259 16 24 207 125 259 276 331 340 10 7 322 298 348 193 189 189 177 171 176 172 170 169 170 169 168 167 169 169 168 168 167 163 160 158 155 150 145 140 139 131 126 111
286 254 243 250 262 224 262 297 46 322 229 232 260 265 169 81 339 322 300 275 217 198 189 185 175 178 176 174 175 176 174 171 174 175 176 176 176 174 171 172 169 170 165 161 151 159 160 139 104
262 264 263 248 249 264 200 240 289 293 279 253 230 256 237 93 345 334 316 274 203 196 191 198 180 180 180 179 179 182 180 179 179 181 184 184 185 181 183 185 182 187 194 198 214 246 285 300 329
257 245 258 250 241 238 207 247 248 266 275 260 246 247 253 77 348 344 334 259 195 192 188 205 184 181 187 185 184 187 187 186 186 188 190 194 194 194 194 198 203 207 216 233 247 270 287 295 299
247 254 246 256 265 246 195 228 269 244 264 275 260 227 242 21 347 347 353 270 195 190 185 208 187 182 189 193 192 191 193 193 192 192 195 199 203 206 207 211 221 226 232 244 260 273 281 290 293
243 250 255 256 254 260 233 199 232 267 263 250 248 241 268 14 339 342 348 301 197 190 188 193 192 186 189 196 198 200 199 199 198 197 201 203 209 214 219 222 229 238 244 252 264 274 278 281 283
233 245 248 248 251 251 253 216 214 245 219 277 244 263 302 323 330 331 337 338 200 195 193 194 190 194 192 197 200 202 205 207 205 204 206 208 215 221 230 229 235 240 250 257 265 272 275 275 279
229 238 244 253 260 263 260 251 211 211 239 220 279 255 243 315 325 329 331 329 207 205 201 196 196 197 194 196 204 204 207 210 211 212 213 212 216 224 234 246 242 247 255 261 267 271 271 272 276
227 243 255 254 253 259 266 260 249 218 224 245 215 267 302 304 312 315 321 314 305 208 208 201 198 204 199 197 204 209 205 212 216 216 218 220 216 216 234 229 261 250 250 263 271 282 280 269 260
248 246 256 264 266 269 267 269 265 260 238 221 248 233 262 288 298 304 298 314 288 251 212 206 202 205 206 204 210 209 205 210 212 220 222 213 219 219 213 219 237 267 244 270 239 255 277 265 260
242 256 260 263 258 271 271 251 254 260 254 238 240 244 245 257 290 298 288 278 257 242 225 212 210 210 212 208 211 211 212 210 213 216 226 217 218 214 223 218 214 230 229 244 246 245 252 258 263
269 260 267 258 256 255 257 259 261 255 257 251 237 251 250 240 265 285 294 278 250 215 169 213 216 226 230 218 203 213 211 211 214 216 220 236 217 223 218 222 225 225 231 231 244 250 254 272 266
262 270 260 255 260 252 257 258 250 255 257 251 241 246 250 235 236 262 274 284 253 248 189 176 190 213 234 231 220 215 219 208 219 216 222 229 228 211 216 222 229 232 235 245 256 249 254 261 272
252 251 257 248 232 238 238 257 253 250 248 247 242 250 242 229 226 236 245 245 257 228 229 207 206 203 261 249 236 231 227 221 222 217 224 226 236 230 237 229 237 236 239 239 262 243 241 242 297
229 252 256 245 183 256 249 255 259 254 223 243 252 252 245 246 227 224 228 221 250 242 225 223 221 231 261 263 244 234 226 236 227 234 230 238 241 248 245 240 236 238 235 228 228 228 242 255 279
287 249 226 266 228 199 250 256 251 253 212 239 247 243 251 242 234 210 209 207 217 224 251 223 213 223 234 262 253 243 230 226 230 239 242 253 254 253 254 233 235 244 230 227 225 244 242 256 260
313 289 284 287 268 271 263 272 271 258 244 235 241 244 246 241 234 212 202 225 228 191 254 239 226 207 215 251 246 252 254 244 242 232 236 236 257 251 242 241 248 249 232 230 234 245 246 256 265
265 266 266 267 263 270 278 273 274 271 264 255 250 249 233 233 221 223 227 233 235 251 256 256 253 235 218 220 241 227 228 239 262 270 241 249 244 249 251 251 254 253 236 231 233 250 249 248 254
253 261 276 282 298 287 284 269 257 252 239 247 244 244 243 222 231 221 230 235 231 217 244 252 249 248 248 246 247 253 244 241 237 237 252 251 267 274 265 256 249 248 239 228 232 245 241 232 238
271 276 283 266 274 267 280 289 283 284 233 217 239 223 236 203 216 225 221 217 227 205 234 251 256 257 244 240 246 255 251 247 244 252 250 243 275 283 283 264 258 241 237 225 232 241 248 251 241
283 299 283 274 272 280 268 264 270 255 247 247 231 202 202 194 200 213 220 217 219 220 234 234 257 265 268 256 249 253 258 256 253 247 241 242 253 271 275 278 263 245 234 229 223 239 238 253 265
285 280 261 260 254 254 258 251 266 262 201 171 183 187 208 207 205 205 214 232 227 227 230 236 252 253 265 263 258 258 260 261 257 249 256 243 232 252 254 264 253 243 238 226 235 225 249 274 258
232 258 265 259 244 246 252 247 269 349 77 286 170 206 212 229 230 226 230 252 252 262 253 253 245 266 273 261 261 264 267 264 261 253 241 240 242 242 239 249 251 235 236 231 226 236 253 261 248
258 243 270 282 285 294 337 246 253 247 188 175 282 261 231 225 234 233 258 268 272 267 269 266 270 276 278 285 269 256 259 264 264 266 259 249 246 244 244 248 248 240 232 238 237 243 240 254 249
263 270 261 289 270 271 276 283 283 174 174 200 214 209 215 230 248 258 267 270 268 268 270 269 278 279 282 283 284 275 264 262 261 256 247 250 250 241 239 246 246 249 244 240 243 239 243 246 242
263 275 273 249 262 264 260 259 270 199 190 191 200 209 232 252 264 272 276 275 271 269 268 268 270 277 279 281 279 278 271 268 263 261 271 267 256 246 241 240 246 251 246 236 232 233 237 238 237
248 242 252 260 248 254 274 284 69 68 58 223 200 210 250 266 281 288 284 279 276 270 268 268 271 277 280 282 280 280 276 271 269 267 263 253 264 265 251 248 241 248 243 227 234 237 234 230 233
244 268 232 246 263 269 275 271 191 153 238 223 219 232 262 283 286 282 282 283 284 279 271 267 272 277 282 284 286 282 280 276 270 267 268 266 258 262 258 258 256 238 231 231 234 229 217 223 219